Home > Weather > Rae-Edzo > Past weeks

Flag for Canada Past Weather in Rae-Edzo, Northwest Territories, Canada — Yesterday and Last 2 Weeks

Now
53 °F

Cool.


Feels Like: 51 °F
Forecast: 46 / 61 °F
Wind: 6 mph from North

Location: Lac La Martre

Current Time: Jul 23, 2016 at 5:21:44 AM

Latest Report: Jul 23, 2016 at 4:00 AM


Visibility: N/A

Pressure: 29.70 "Hg

Humidity: 64%

Dew Point: 41 °F

Location of Rae-EdzoLocation

Past Weather in Rae-Edzo — Graph

°F

Rae-Edzo Temperature Yesterday

Maximum temperature yesterday: 62 °F (at 2:00 PM)
Minimum temperature yesterday: 50 °F (at 4:00 AM)
Average temperature yesterday: 57 °F

High & Low Weather Summary for the Past Weeks

 TemperatureHumidityPressure
High85 °F (Jul 14, 5:00 PM)94% (Jul 11, 3:00 AM)30.16 "Hg (Jul 11, 3:00 AM)
Low42 °F (Jul 20, 4:00 AM)24% (Jul 13, 6:00 PM)29.65 "Hg (Jul 22, 3:00 PM)
Average64 °F57%29.89 "Hg
* Reported Jul 8 4:00 AM — Jul 23 4:00 AM, Rae-Edzo, Weather by CustomWeather, © 2016

Note: Actual official high and low records may vary slightly from our data, if they occured in-between our weather recording intervals... More about our weather records

Advertising

Rae-Edzo Weather History for the Previous 24 Hours

Scroll right to see more
 ConditionsComfort  
Time TempWeatherWind HumidityBarometerVisibility
4:00 AM
Sat, Jul 23
53 °FCool.6 mph64%29.70 "HgN/A
3:00 AM56 °FRefreshingly cool.8 mph56%29.68 "HgN/A
2:00 AM56 °FRefreshingly cool.7 mph58%29.68 "HgN/A
1:00 AM57 °FRefreshingly cool.10 mph54%29.67 "HgN/A
12:00 AM58 °FRefreshingly cool.12 mph52%29.67 "HgN/A
11:00 PM
Fri, Jul 22
58 °FRefreshingly cool.12 mph48%29.66 "HgN/A
10:00 PM60 °FRefreshingly cool.12 mph48%29.66 "HgN/A
9:00 PM60 °FRefreshingly cool.13 mph45%29.66 "HgN/A
8:00 PM60 °FRefreshingly cool.12 mph42%29.66 "HgN/A
7:00 PM61 °FRefreshingly cool.13 mph40%29.65 "HgN/A
6:00 PM61 °FRefreshingly cool.12 mph39%29.66 "HgN/A
5:00 PM59 °FRefreshingly cool.12 mph45%29.66 "HgN/A
4:00 PM60 °FRefreshingly cool.12 mph39%29.66 "HgN/A
3:00 PM60 °FRefreshingly cool.10 mph44%29.65 "HgN/A
2:00 PM62 °FRefreshingly cool.10 mph45%29.65 "HgN/A
1:00 PM61 °FRefreshingly cool.10 mph45%29.67 "HgN/A
12:00 PM60 °FRefreshingly cool.9 mph50%29.67 "HgN/A
11:00 AM56 °FCool.10 mph61%29.68 "HgN/A
10:00 AM54 °FCool.6 mph73%29.69 "HgN/A
9:00 AM53 °FCool.5 mph76%29.69 "HgN/A
8:00 AM54 °FCool.8 mph65%29.70 "HgN/A
7:00 AM56 °FRefreshingly cool.10 mph60%29.70 "HgN/A
6:00 AM52 °FCool.9 mph69%29.71 "HgN/A
5:00 AM50 °FCool.7 mph72%29.72 "HgN/A
Weather by CustomWeather, © 2016

See weather overviewHow to use our weather pages